Cosmos 1437 - Orbit

View from above orbital plane
View from above orbital plane
View from above satellite
View from above satellite

Ground track
Ground track

The orbit data is extracted from the following two-line orbital elements,

1 13770U 83003A   13142.07423664  .00006688  00000-0  27113-3 0  2858
2 13770 081.1668 138.4438 0013659 015.8736 046.0076 15.24405108657882
Epoch (UTC): 22 May 2013 01:46:54
Eccentricity: 0.0013659
inclination: 81.1668°
perigee height: 483 km
apogee height: 502 km
right ascension of ascending node: 138.4438°
argument of perigee: 15.8736°
revolutions per day: 15.24405108
mean anomaly at epoch: 46.0076°
orbit number at epoch: 65788

The dashed part of the orbit path shows where the satellite is in the earth's shadow,  

Developed and maintained by Chris Peat, Heavens-Above GmbH. Please read the updated FAQ before sending e-mail. Imprint. DLR